GSAT0213 (GALILEO 17)

Last updated on Wed Sep 16 2026 00:02:50 GMT+0000 (Coordinated Universal Time)

1 41861U 16069C 26258.30017772 .00000003 00000+0 00000+0 0 9993 2 41861 55.5571 98.5941 0002003 331.4312 28.6313 1.70474479 61056
UTC large
Height (km)
Speed (km/s)
/
Latitude / Longitude
Inclination (degrees)
Orbital Period (minutes)
Azimuth
Elevation
Range (km)
Doppler Factor

Next 0 passes for location: London (51.5072 / 0.1276)

No passes found over London.